#timestamp,LO_Frequency,Hit,StdDev 
1622620815.6,286047007.4,N
1622620835.5,286047005.8,N
1622620855.3,286047003.8,N
1622620875.1,286047004.4,N
1622620895.9,286047004.0,N
1622620915.7,286047000.1,N
1622620935.6,286047000.6,N
1622620955.4,286047000.7,N
1622620975.2,286046999.3,N
1622620995.1,286046995.7,N
1622620996.0,286046995.7,N
1622621015.8,286046994.4,N
1622621035.6,286046992.1,N
1622621055.5,286046992.2,N
1622621075.3,286047000.8,N
1622621095.2,286047002.0,N
1622621115.9,286046998.7,N
1622621135.7,286047000.5,N
1622621155.6,286047002.6,N
1622621175.4,286047001.3,N
1622621195.3,286047003.7,N
1622621215.1,286047005.1,N
1622621216.0,286047005.1,N
1622621235.8,286047009.2,N
1622621255.7,286047008.3,N
1622621275.5,286047008.5,N
1622621295.3,286047007.7,N
1622621315.2,286047006.6,N
1622621335.0,286047006.9,N
1622621335.9,286047006.9,N
1622621355.8,286047005.9,N
1622621375.6,286047003.7,N
1622621395.4,286047002.2,N
1622621415.3,286047000.3,N
1622621435.1,286046999.6,N
1622621455.8,286046996.9,N
1622621475.7,286046999.0,N
1622621495.5,286047000.5,N
1622621515.4,286047000.7,N
1622621535.2,286047000.5,N
1622621555.0,286047000.4,N
1622621555.9,286047000.4,N
1622621575.8,286047001.0,N
1622621595.6,286046999.9,N
1622621615.5,286046998.1,N
1622621635.3,286046999.6,N
1622621655.1,286047004.4,N
1622621675.9,286046999.7,N
1622621695.7,286046999.4,N
1622621715.5,286046993.6,N
1622621735.4,286046993.1,N
1622621755.2,286046991.6,N
1622621775.1,286046989.4,N
1622621776.0,286046989.4,N
1622621795.8,286046987.0,N
1622621815.6,286046989.6,N
1622621835.5,286046989.6,N
1622621855.3,286046987.9,N
1622621875.2,286046985.3,N
1622621895.9,286046986.2,N
1622621915.7,286046985.4,N
1622621935.6,286046983.8,N
1622621955.4,286046986.4,N
1622621975.2,286046986.2,N
1622621995.1,286046984.8,N
1622621996.0,286046984.8,N
1622622015.8,286046984.2,N
1622622035.7,286046984.1,N
1622622055.5,286046985.9,N
1622622075.3,286046983.7,N
1622622095.2,286046984.2,N
1622622115.0,286046982.2,N
1622622115.9,286046982.2,N
1622622135.8,286046983.2,N
1622622155.6,286046983.1,N
1622622175.4,286046982.5,Y
1622622195.3,286046996.2,P
1622622215.1,286046996.2,N
1622622235.9,286046996.0,N
1622622255.7,286046991.7,N
1622622275.5,286046993.4,N
1622622295.4,286046996.7,N
1622622315.2,286047000.1,N
1622622335.1,286046999.9,N
1622622336.0,286046999.9,N
1622622355.8,286047000.7,N
1622622375.6,286046999.0,N
1622622395.5,286046999.2,N
1622622415.3,286046996.8,N
1622622435.1,286046996.8,N
1622622455.9,286046999.6,N
1622622475.7,286046996.7,N
1622622495.6,286046996.7,N
1622622515.4,286046996.9,N
1622622565.3,286046997.7,E
1622622575.2,286046999.4,N
1622622595.0,286046998.3,P
1622622595.9,286046998.3,P
1622622615.8,286047000.8,N
1622622635.6,286047020.0,Y
1622622655.5,286047024.5,P
1622622675.3,286047020.8,N
1622622695.1,286047019.7,N
1622622715.9,286047017.1,N
1622622735.7,286047012.5,N
1622622755.6,286047014.0,N
1622622775.4,286047012.4,N
1622622795.3,286047010.2,N
1622622815.1,286047007.7,N
1622622835.8,286047009.2,N
1622622855.7,286047006.5,N
1622622875.5,286047007.6,N
1622622895.4,286047005.4,N
1622622915.2,286047005.7,N
1622622935.0,286047003.6,N
1622622935.9,286047003.6,N
1622622955.8,286047004.0,N
1622622975.6,286047001.5,N
1622622995.5,286047002.0,N
1622623015.3,286047000.0,N
1622623035.1,286047000.4,N
1622623055.9,286047002.1,N
1622623075.7,286047000.5,N
1622623095.5,286047000.6,N
1622623115.4,286047000.9,N
1622623135.2,286047000.6,N
1622623155.1,286047000.5,N
1622623156.0,286047000.5,N
1622623175.8,286047001.1,N
1622623195.6,286046998.5,N
1622623215.5,286047001.0,N
1622623235.3,286046998.5,N
1622623255.1,286046999.0,N
1622623275.9,286046998.6,N
1622623295.7,286046998.6,N
1622623315.6,286046998.6,N
1622623335.4,286047000.7,N
1622623355.2,286047001.0,N
1622623375.1,286047000.3,N
1622623376.0,286047000.3,N
1622623395.8,286047001.1,N
1622623415.6,286046998.1,N
1622623435.5,286047001.0,N
1622623455.3,286046999.9,N
1622623475.2,286047002.8,N
1622623495.9,286046999.8,N
1622623515.7,286047000.5,N
1622623535.6,286046998.1,N
1622623555.4,286047000.0,N
1622623575.2,286047000.6,N
1622623595.1,286046999.7,N
1622623596.0,286046999.7,N
1622623615.8,286047002.8,N
1622623635.7,286046999.7,N
1622623655.5,286047002.6,N
1622623675.3,286047002.1,N
1622623695.2,286047002.4,N
1622623715.0,286047002.5,N
1622623715.9,286047002.5,N
1622623735.8,286047002.5,N
1622623755.6,286046999.9,N
1622623775.4,286046999.8,N
1622623795.3,286047000.1,N
1622623815.1,286046999.7,N
1622623835.8,286047000.0,N
1622623855.7,286047000.3,N
1622623875.5,286047000.5,N
1622623895.3,286047000.8,N
1622623915.2,286047002.5,N
1622623935.0,286047002.8,N
1622623935.9,286047002.8,N
1622623955.8,286047000.2,N
1622623975.6,286047002.3,N
1622623995.4,286047002.3,N
1622624015.3,286047001.7,N
1622624035.1,286047001.5,N
1622624055.9,286047003.6,N
1622624075.7,286047001.4,N
1622624095.5,286047001.9,N
1622624115.4,286047002.6,N
1622624135.2,286047002.7,N
1622624155.0,286047002.4,N
1622624155.9,286047002.4,N
1622624175.8,286047000.2,N
1622624195.6,286047000.2,N
1622624215.5,286047002.2,N
1622624235.3,286047002.4,N
1622624255.1,286047000.3,N
1622624275.9,286047002.1,N
1622624295.7,286047000.4,N
1622624315.6,286046999.2,N
1622624335.4,286046997.2,N
1622624355.2,286046999.5,N
1622624375.1,286046997.0,N
1622624376.0,286046997.0,N
1622624395.8,286046999.6,N
